| time (UTC) | temp C | wind direction | speed KPH | gust KPH | rain 1hr cm | rain 24hr cm | rain mn cm | humidity % | barometer mb |
| 20260902081304 | 18 | 150 | 0.0 | 0.0 | 0.00 | 0.00 | 0.00 | 81 | 1022.1 |
| 20260902080803 | 17 | 153 | 0.0 | 0.0 | 0.00 | 0.00 | 0.00 | 81 | 1022.0 |
| 20260902080304 | 17 | 174 | 0.0 | 4.8 | 0.00 | 0.00 | 0.00 | 82 | 1022.0 |
| 20260902075803 | 16 | 163 | 0.0 | 0.0 | 0.00 | 0.00 | 0.00 | 83 | 1022.0 |
| 20260902074803 | 16 | 156 | 0.0 | 0.0 | 0.00 | 0.00 | 0.00 | 86 | 1022.0 |
| 20260902074304 | 16 | 153 | 0.0 | 0.0 | 0.00 | 0.00 | 0.00 | 86 | 1022.0 |
| 20260902073803 | 16 | 142 | 0.0 | 4.8 | 0.00 | 0.00 | 0.00 | 86 | 1022.0 |
| 20260902073304 | 16 | 56 | 0.0 | 3.2 | 0.00 | 0.00 | 0.00 | 85 | 1022.0 |
| 20260902072803 | 16 | 112 | 0.0 | 0.0 | 0.00 | 0.00 | 0.00 | 86 | 1022.0 |
| 20260902072309 | 15 | 132 | 0.0 | 0.0 | 0.00 | 0.00 | 0.00 | 86 | 1022.0 |
| 20260902071803 | 15 | 121 | 0.0 | 0.0 | 0.00 | 0.00 | 0.00 | 86 | 1022.0 |
| 20260902070804 | 15 | 92 | 0.0 | 0.0 | 0.00 | 0.00 | 0.00 | 88 | 1022.0 |
| 20260902070303 | 14 | 88 | 0.0 | 0.0 | 0.00 | 0.00 | 0.00 | 88 | 1022.0 |
| 20260902065804 | 14 | 88 | 0.0 | 0.0 | 0.00 | 0.00 | 0.00 | 89 | 1022.0 |
| 20260902065306 | 14 | 88 | 0.0 | 0.0 | 0.00 | 0.00 | 0.00 | 88 | 1022.0 |
| 20260902064803 | 14 | 88 | 0.0 | 0.0 | 0.00 | 0.00 | 0.00 | 89 | 1022.0 |
| 20260902064303 | 14 | 164 | 0.0 | 0.0 | 0.00 | 0.00 | 0.00 | 90 | 1022.0 |
| 20260902063804 | 13 | 103 | 0.0 | 0.0 | 0.00 | 0.00 | 0.00 | 91 | 1021.9 |
| 20260902063304 | 13 | 68 | 0.0 | 0.0 | 0.00 | 0.00 | 0.00 | 92 | 1021.9 |
| 20260902062804 | 13 | 68 | 0.0 | 0.0 | 0.00 | 0.00 | 0.00 | 93 | 1021.9 |
| 20260902062306 | 13 | 68 | 0.0 | 0.0 | 0.00 | 0.00 | 0.00 | 94 | 1022.1 |
| 20260902061804 | 13 | 65 | 0.0 | 0.0 | 0.00 | 0.00 | 0.00 | 94 | 1022.1 |
| 20260902061303 | 12 | 59 | 0.0 | 0.0 | 0.00 | 0.00 | 0.00 | 94 | 1021.9 |
| 20260902060304 | 12 | 186 | 0.0 | 0.0 | 0.00 | 0.00 | 0.00 | 95 | 1021.9 |
| 20260902055804 | 12 | 186 | 0.0 | 0.0 | 0.00 | 0.00 | 0.00 | 96 | 1021.9 |
| 20260902055306 | 12 | 186 | 0.0 | 0.0 | 0.00 | 0.00 | 0.00 | 97 | 1021.9 |
| 20260902054303 | 12 | 186 | 0.0 | 0.0 | 0.00 | 0.00 | 0.00 | 97 | 1021.9 |
| 20260902053304 | 12 | 186 | 0.0 | 0.0 | 0.00 | 0.00 | 0.00 | 98 | 1021.9 |
| 20260902052306 | 11 | 186 | 0.0 | 1.6 | 0.00 | 0.00 | 0.00 | 98 | 1021.9 |
| 20260902051803 | 11 | 186 | 0.0 | 0.0 | 0.00 | 0.00 | 0.00 | 99 | 1021.9 |
| 20260902051303 | 11 | 186 | 0.0 | 0.0 | 0.00 | 0.00 | 0.00 | 99 | 1021.9 |
| 20260902050304 | 11 | 194 | 0.0 | 1.6 | 0.00 | 0.00 | 0.00 | 100 | 1021.9 |
| 20260902045306 | 11 | 195 | 0.0 | 0.0 | 0.00 | 0.00 | 0.00 | 100 | 1021.8 |
| 20260902044304 | 11 | 195 | 0.0 | 0.0 | 0.00 | 0.00 | 0.00 | 100 | 1021.8 |
| 20260902043804 | 11 | 195 | 0.0 | 0.0 | 0.00 | 0.00 | 0.00 | 100 | 1021.8 |
| 20260902043303 | 11 | 195 | 0.0 | 0.0 | 0.00 | 0.00 | 0.00 | 100 | 1021.8 |
| 20260902042803 | 11 | 195 | 0.0 | 0.0 | 0.00 | 0.00 | 0.00 | 100 | 1021.9 |
| 20260902042308 | 11 | 195 | 0.0 | 0.0 | 0.00 | 0.00 | 0.00 | 100 | 1021.9 |
| 20260902041303 | 11 | 195 | 0.0 | 0.0 | 0.00 | 0.00 | 0.00 | 100 | 1021.9 |
| 20260902040303 | 11 | 195 | 0.0 | 0.0 | 0.00 | 0.00 | 0.00 | 100 | 1021.7 |
| 20260902035803 | 11 | 195 | 0.0 | 0.0 | 0.00 | 0.00 | 0.00 | 100 | 1021.9 |
| 20260902034804 | 11 | 195 | 0.0 | 0.0 | 0.00 | 0.00 | 0.00 | 100 | 1021.9 |
| 20260902034304 | 11 | 195 | 0.0 | 0.0 | 0.00 | 0.00 | 0.00 | 100 | 1021.9 |
| 20260902033804 | 11 | 195 | 0.0 | 0.0 | 0.00 | 0.00 | 0.00 | 100 | 1021.9 |
| 20260902033304 | 11 | 195 | 0.0 | 0.0 | 0.00 | 0.00 | 0.00 | 100 | 1021.9 |
| 20260902032306 | 11 | 195 | 0.0 | 0.0 | 0.00 | 0.00 | 0.00 | 100 | 1021.9 |
| 20260902030803 | 10 | 326 | 0.0 | 0.0 | 0.00 | 0.00 | 0.00 | 100 | 1021.9 |
| 20260902030303 | 11 | 326 | 0.0 | 0.0 | 0.00 | 0.00 | 0.00 | 99 | 1021.9 |
| 20260902025306 | 11 | 326 | 0.0 | 0.0 | 0.00 | 0.00 | 0.00 | 99 | 1021.9 |
| 20260902024804 | 11 | 326 | 0.0 | 0.0 | 0.00 | 0.00 | 0.00 | 99 | 1021.9 |
| 20260902024303 | 11 | 326 | 0.0 | 0.0 | 0.00 | 0.00 | 0.00 | 99 | 1021.9 |
| 20260902022804 | 11 | 326 | 0.0 | 0.0 | 0.00 | 0.00 | 0.00 | 98 | 1021.8 |
| 20260902022306 | 11 | 326 | 0.0 | 0.0 | 0.00 | 0.00 | 0.00 | 98 | 1021.8 |
| 20260902021804 | 11 | 326 | 0.0 | 0.0 | 0.00 | 0.00 | 0.00 | 98 | 1021.8 |
| 20260902021304 | 11 | 326 | 0.0 | 0.0 | 0.00 | 0.00 | 0.00 | 98 | 1021.8 |
| 20260902020804 | 11 | 326 | 0.0 | 0.0 | 0.00 | 0.00 | 0.00 | 98 | 1021.8 |
| 20260902020303 | 11 | 326 | 0.0 | 0.0 | 0.00 | 0.00 | 0.00 | 98 | 1021.9 |
| 20260902015804 | 12 | 326 | 0.0 | 0.0 | 0.00 | 0.00 | 0.00 | 98 | 1021.9 |
| 20260902015306 | 12 | 326 | 0.0 | 0.0 | 0.00 | 0.00 | 0.00 | 98 | 1021.9 |
| 20260902014803 | 12 | 326 | 0.0 | 0.0 | 0.00 | 0.00 | 0.00 | 98 | 1021.9 |
| 20260902014304 | 11 | 326 | 0.0 | 0.0 | 0.00 | 0.00 | 0.00 | 98 | 1021.9 |
| 20260902013803 | 12 | 326 | 0.0 | 0.0 | 0.00 | 0.00 | 0.00 | 98 | 1021.9 |
| 20260902013304 | 12 | 326 | 0.0 | 0.0 | 0.00 | 0.00 | 0.00 | 98 | 1022.0 |
| 20260902012308 | 11 | 326 | 0.0 | 0.0 | 0.00 | 0.00 | 0.00 | 98 | 1022.0 |
| 20260902010803 | 12 | 326 | 0.0 | 0.0 | 0.00 | 0.00 | 0.00 | 99 | 1022.0 |
| 20260902010303 | 12 | 326 | 0.0 | 0.0 | 0.00 | 0.00 | 0.00 | 99 | 1022.0 |
| 20260902005804 | 12 | 326 | 0.0 | 0.0 | 0.00 | 0.00 | 0.00 | 99 | 1022.0 |
| 20260902005306 | 11 | 326 | 0.0 | 0.0 | 0.00 | 0.00 | 0.00 | 99 | 1022.0 |
| 20260902004804 | 11 | 326 | 0.0 | 0.0 | 0.00 | 0.00 | 0.00 | 99 | 1022.1 |
| 20260902004303 | 11 | 326 | 0.0 | 0.0 | 0.00 | 0.00 | 0.00 | 99 | 1022.1 |
| 20260902003803 | 11 | 326 | 0.0 | 0.0 | 0.00 | 0.00 | 0.00 | 99 | 1022.1 |
| 20260902002804 | 11 | 326 | 0.0 | 0.0 | 0.00 | 0.00 | 0.00 | 99 | 1022.2 |
| 20260902002306 | 11 | 326 | 0.0 | 0.0 | 0.00 | 0.00 | 0.00 | 98 | 1022.3 |
| 20260902001804 | 11 | 326 | 0.0 | 0.0 | 0.00 | 0.00 | 0.00 | 99 | 1022.3 |
| 20260902001303 | 11 | 326 | 0.0 | 0.0 | 0.00 | 0.00 | 0.00 | 99 | 1022.3 |
| 20260902000804 | 11 | 326 | 0.0 | 0.0 | 0.00 | 0.00 | 0.00 | 99 | 1022.3 |
| 20260902000304 | 11 | 326 | 0.0 | 0.0 | 0.00 | 0.00 | 0.00 | 99 | 1022.3 |
| 20260901235803 | 11 | 326 | 0.0 | 0.0 | 0.00 | 0.00 | 0.00 | 98 | 1022.2 |
| 20260901235307 | 11 | 326 | 0.0 | 0.0 | 0.00 | 0.00 | 0.00 | 98 | 1022.2 |
| 20260901234805 | 11 | 326 | 0.0 | 0.0 | 0.00 | 0.00 | 0.00 | 98 | 1022.2 |
| 20260901233803 | 12 | 326 | 0.0 | 0.0 | 0.00 | 0.00 | 0.00 | 97 | 1022.2 |
| 20260901233303 | 12 | 326 | 0.0 | 0.0 | 0.00 | 0.00 | 0.00 | 97 | 1022.2 |
| 20260901232805 | 12 | 326 | 0.0 | 0.0 | 0.00 | 0.00 | 0.00 | 97 | 1022.2 |
| 20260901232306 | 12 | 326 | 0.0 | 0.0 | 0.00 | 0.00 | 0.00 | 97 | 1022.2 |
| 20260901231803 | 12 | 326 | 0.0 | 0.0 | 0.00 | 0.00 | 0.00 | 97 | 1022.3 |
| 20260901231304 | 12 | 326 | 0.0 | 0.0 | 0.00 | 0.00 | 0.00 | 97 | 1022.3 |
| 20260901225804 | 12 | 326 | 0.0 | 0.0 | 0.00 | 0.00 | 0.00 | 96 | 1022.3 |
| 20260901225306 | 12 | 326 | 0.0 | 0.0 | 0.00 | 0.00 | 0.00 | 96 | 1022.3 |
| 20260901224803 | 12 | 326 | 0.0 | 0.0 | 0.00 | 0.00 | 0.00 | 95 | 1022.4 |
| 20260901223804 | 12 | 326 | 0.0 | 0.0 | 0.00 | 0.00 | 0.00 | 95 | 1022.1 |
| 20260901223304 | 12 | 326 | 0.0 | 0.0 | 0.00 | 0.00 | 0.00 | 95 | 1022.1 |
| 20260901222803 | 12 | 326 | 0.0 | 0.0 | 0.00 | 0.00 | 0.00 | 95 | 1022.1 |
| 20260901222306 | 12 | 326 | 0.0 | 0.0 | 0.00 | 0.00 | 0.00 | 95 | 1022.1 |
| 20260901221804 | 12 | 326 | 0.0 | 0.0 | 0.00 | 0.00 | 0.00 | 95 | 1022.1 |
| 20260901221304 | 13 | 326 | 0.0 | 0.0 | 0.00 | 0.00 | 0.00 | 94 | 1022.1 |
| 20260901220810 | 13 | 326 | 0.0 | 0.0 | 0.00 | 0.00 | 0.00 | 94 | 1022.1 |
| 20260901220303 | 13 | 326 | 0.0 | 0.0 | 0.00 | 0.00 | 0.00 | 94 | 1022.1 |
| 20260901214804 | 13 | 326 | 0.0 | 0.0 | 0.00 | 0.00 | 0.00 | 93 | 1022.1 |
| 20260901214303 | 13 | 326 | 0.0 | 0.0 | 0.00 | 0.00 | 0.00 | 93 | 1022.1 |
| 20260901213804 | 13 | 326 | 0.0 | 0.0 | 0.00 | 0.00 | 0.00 | 93 | 1022.1 |
| 20260901213304 | 13 | 326 | 0.0 | 0.0 | 0.00 | 0.00 | 0.00 | 93 | 1022.1 |
| 20260901212804 | 13 | 326 | 0.0 | 0.0 | 0.00 | 0.00 | 0.00 | 92 | 1022.1 |
| 20260901211803 | 13 | 326 | 0.0 | 0.0 | 0.00 | 0.00 | 0.00 | 92 | 1022.1 |
| 20260901210804 | 13 | 326 | 0.0 | 0.0 | 0.00 | 0.00 | 0.00 | 92 | 1021.8 |
| 20260901205804 | 14 | 326 | 0.0 | 0.0 | 0.00 | 0.00 | 0.00 | 90 | 1021.8 |
| 20260901205306 | 14 | 326 | 0.0 | 0.0 | 0.00 | 0.00 | 0.00 | 91 | 1021.8 |
| 20260901204804 | 14 | 326 | 0.0 | 0.0 | 0.00 | 0.00 | 0.00 | 90 | 1021.8 |
| 20260901204304 | 14 | 326 | 0.0 | 0.0 | 0.00 | 0.00 | 0.00 | 90 | 1021.8 |
| 20260901203804 | 14 | 326 | 0.0 | 0.0 | 0.00 | 0.00 | 0.00 | 90 | 1021.8 |
| 20260901202805 | 14 | 326 | 0.0 | 0.0 | 0.00 | 0.00 | 0.00 | 90 | 1021.8 |
| 20260901201804 | 15 | 326 | 0.0 | 0.0 | 0.00 | 0.00 | 0.00 | 89 | 1021.8 |
| 20260901201304 | 15 | 326 | 0.0 | 0.0 | 0.00 | 0.00 | 0.00 | 89 | 1021.8 |
| 20260901200803 | 15 | 326 | 0.0 | 0.0 | 0.00 | 0.00 | 0.00 | 88 | 1021.8 |
| 20260901195804 | 15 | 326 | 0.0 | 0.0 | 0.00 | 0.00 | 0.00 | 87 | 1021.8 |
| 20260901195306 | 15 | 326 | 0.0 | 0.0 | 0.00 | 0.00 | 0.00 | 86 | 1021.7 |
| 20260901194804 | 15 | 326 | 0.0 | 0.0 | 0.00 | 0.00 | 0.00 | 86 | 1021.7 |
| 20260901193804 | 15 | 326 | 0.0 | 0.0 | 0.00 | 0.00 | 0.00 | 86 | 1021.7 |
| 20260901193304 | 16 | 326 | 0.0 | 0.0 | 0.00 | 0.00 | 0.00 | 85 | 1021.7 |
| 20260901192804 | 16 | 326 | 0.0 | 0.0 | 0.00 | 0.00 | 0.00 | 85 | 1021.7 |
| 20260901192306 | 16 | 326 | 0.0 | 0.0 | 0.00 | 0.00 | 0.00 | 84 | 1021.6 |
| 20260901191804 | 16 | 326 | 0.0 | 0.0 | 0.00 | 0.00 | 0.00 | 82 | 1021.6 |
| 20260901191304 | 16 | 326 | 0.0 | 0.0 | 0.00 | 0.00 | 0.00 | 81 | 1021.6 |
| 20260901190804 | 16 | 326 | 0.0 | 0.0 | 0.00 | 0.00 | 0.00 | 82 | 1021.6 |
| 20260901190303 | 16 | 326 | 0.0 | 0.0 | 0.00 | 0.00 | 0.00 | 82 | 1021.6 |
| 20260901185306 | 17 | 326 | 0.0 | 0.0 | 0.00 | 0.00 | 0.00 | 81 | 1021.5 |
| 20260901184804 | 17 | 326 | 0.0 | 0.0 | 0.00 | 0.00 | 0.00 | 78 | 1021.2 |
| 20260901183804 | 17 | 326 | 0.0 | 0.0 | 0.00 | 0.00 | 0.00 | 76 | 1021.2 |
| 20260901183304 | 18 | 326 | 0.0 | 0.0 | 0.00 | 0.00 | 0.00 | 77 | 1021.2 |
| 20260901182804 | 18 | 326 | 0.0 | 0.0 | 0.00 | 0.00 | 0.00 | 74 | 1021.2 |
| 20260901181804 | 19 | 326 | 0.0 | 0.0 | 0.00 | 0.00 | 0.00 | 71 | 1020.9 |
| 20260901181303 | 19 | 326 | 0.0 | 0.0 | 0.00 | 0.00 | 0.00 | 70 | 1020.9 |
| 20260901180804 | 19 | 326 | 0.0 | 0.0 | 0.00 | 0.00 | 0.00 | 69 | 1020.9 |
| 20260901180304 | 20 | 326 | 0.0 | 0.0 | 0.00 | 0.00 | 0.00 | 67 | 1020.8 |
| 20260901175803 | 20 | 326 | 0.0 | 0.0 | 0.00 | 0.00 | 0.00 | 66 | 1020.8 |
| 20260901175305 | 20 | 326 | 0.0 | 0.0 | 0.00 | 0.00 | 0.00 | 64 | 1020.8 |
| 20260901174804 | 21 | 326 | 0.0 | 0.0 | 0.00 | 0.00 | 0.00 | 63 | 1020.8 |
| 20260901173803 | 21 | 323 | 0.0 | 0.0 | 0.00 | 0.00 | 0.00 | 62 | 1020.8 |
| 20260901173303 | 21 | 323 | 0.0 | 0.0 | 0.00 | 0.00 | 0.00 | 61 | 1020.7 |
| 20260901172803 | 21 | 323 | 0.0 | 0.0 | 0.00 | 0.00 | 0.00 | 61 | 1020.7 |
| 20260901172305 | 22 | 323 | 0.0 | 0.0 | 0.00 | 0.00 | 0.00 | 59 | 1020.7 |
| 20260901171804 | 22 | 317 | 0.0 | 0.0 | 0.00 | 0.00 | 0.00 | 58 | 1020.7 |
| 20260901171304 | 22 | 0 | 0.0 | 0.0 | 0.00 | 0.00 | 0.00 | 59 | 1020.7 |
| 20260901170803 | 22 | 318 | 0.0 | 1.6 | 0.00 | 0.00 | 0.00 | 57 | 1020.7 |
| 20260901170303 | 22 | 263 | 0.0 | 0.0 | 0.00 | 0.00 | 0.00 | 56 | 1020.7 |
| 20260901165306 | 23 | 302 | 0.0 | 0.0 | 0.00 | 0.00 | 0.00 | 54 | 1020.8 |
| 20260901164803 | 23 | 297 | 0.0 | 1.6 | 0.00 | 0.00 | 0.00 | 54 | 1020.8 |
| 20260901164303 | 23 | 336 | 0.0 | 4.8 | 0.00 | 0.00 | 0.00 | 54 | 1020.8 |
| 20260901163804 | 23 | 41 | 1.6 | 9.7 | 0.00 | 0.00 | 0.00 | 52 | 1020.9 |
| 20260901163303 | 23 | 22 | 0.0 | 0.0 | 0.00 | 0.00 | 0.00 | 53 | 1020.9 |
| 20260901162803 | 23 | 316 | 0.0 | 1.6 | 0.00 | 0.00 | 0.00 | 51 | 1020.9 |
| 20260901161803 | 23 | 3 | 0.0 | 1.6 | 0.00 | 0.00 | 0.00 | 51 | 1020.9 |
| 20260901161303 | 24 | 273 | 0.0 | 3.2 | 0.00 | 0.00 | 0.00 | 50 | 1020.9 |
| 20260901160803 | 24 | 245 | 0.0 | 8.0 | 0.00 | 0.00 | 0.00 | 52 | 1020.9 |
| 20260901160303 | 24 | 321 | 0.0 | 1.6 | 0.00 | 0.00 | 0.00 | 51 | 1020.9 |
| 20260901155803 | 23 | 281 | 0.0 | 1.6 | 0.00 | 0.00 | 0.00 | 51 | 1020.9 |
| 20260901154803 | 24 | 283 | 1.6 | 8.0 | 0.00 | 0.00 | 0.00 | 50 | 1020.8 |
| 20260901153803 | 25 | 267 | 0.0 | 0.0 | 0.00 | 0.00 | 0.00 | 49 | 1020.8 |
| 20260901153303 | 26 | 313 | 0.0 | 1.6 | 0.00 | 0.00 | 0.00 | 48 | 1020.8 |
| 20260901152803 | 26 | 356 | 0.0 | 0.0 | 0.00 | 0.00 | 0.00 | 47 | 1020.8 |
| 20260901152305 | 26 | 303 | 0.0 | 3.2 | 0.00 | 0.00 | 0.00 | 46 | 1020.8 |
| 20260901151802 | 26 | 325 | 0.0 | 3.2 | 0.00 | 0.00 | 0.00 | 47 | 1020.9 |
| 20260901151302 | 26 | 355 | 0.0 | 0.0 | 0.00 | 0.00 | 0.00 | 48 | 1020.9 |
| 20260901150802 | 26 | 355 | 0.0 | 0.0 | 0.00 | 0.00 | 0.00 | 47 | 1020.9 |
| 20260901150303 | 26 | 347 | 0.0 | 4.8 | 0.00 | 0.00 | 0.00 | 46 | 1020.9 |
| 20260901145803 | 26 | 291 | 1.6 | 8.0 | 0.00 | 0.00 | 0.00 | 47 | 1020.9 |
| 20260901145306 | 26 | 244 | 1.6 | 4.8 | 0.00 | 0.00 | 0.00 | 48 | 1020.9 |
| 20260901144303 | 25 | 348 | 0.0 | 8.0 | 0.00 | 0.00 | 0.00 | 48 | 1020.9 |
| 20260901143803 | 26 | 315 | 1.6 | 9.7 | 0.00 | 0.00 | 0.00 | 49 | 1020.9 |
| 20260901142803 | 25 | 302 | 0.0 | 3.2 | 0.00 | 0.00 | 0.00 | 50 | 1020.9 |
| 20260901142305 | 25 | 24 | 0.0 | 3.2 | 0.00 | 0.00 | 0.00 | 49 | 1021.1 |
| 20260901141802 | 25 | 294 | 0.0 | 8.0 | 0.00 | 0.00 | 0.00 | 49 | 1021.1 |
| 20260901141303 | 26 | 284 | 1.6 | 8.0 | 0.00 | 0.00 | 0.00 | 48 | 1021.1 |
| 20260901140303 | 26 | 21 | 1.6 | 4.8 | 0.00 | 0.00 | 0.00 | 48 | 1021.2 |
| 20260901135802 | 27 | 318 | 1.6 | 8.0 | 0.00 | 0.00 | 0.00 | 47 | 1021.2 |
| 20260901135305 | 27 | 33 | 0.0 | 4.8 | 0.00 | 0.00 | 0.00 | 50 | 1021.2 |
| 20260901134803 | 26 | 323 | 0.0 | 3.2 | 0.00 | 0.00 | 0.00 | 48 | 1021.2 |
| 20260901134303 | 25 | 32 | 0.0 | 12.9 | 0.00 | 0.00 | 0.00 | 47 | 1021.2 |
| 20260901133303 | 26 | 276 | 1.6 | 14.5 | 0.00 | 0.00 | 0.00 | 48 | 1021.2 |
| 20260901132802 | 26 | 27 | 3.2 | 11.3 | 0.00 | 0.00 | 0.00 | 47 | 1021.2 |
| 20260901132306 | 26 | 308 | 1.6 | 8.0 | 0.00 | 0.00 | 0.00 | 48 | 1021.2 |
| 20260901131802 | 26 | 318 | 1.6 | 4.8 | 0.00 | 0.00 | 0.00 | 49 | 1021.5 |
| 20260901131303 | 25 | 50 | 0.0 | 1.6 | 0.00 | 0.00 | 0.00 | 47 | 1021.5 |
| 20260901130803 | 25 | 334 | 0.0 | 4.8 | 0.00 | 0.00 | 0.00 | 51 | 1021.5 |
| 20260901130302 | 25 | 273 | 0.0 | 11.3 | 0.00 | 0.00 | 0.00 | 48 | 1021.5 |
| 20260901125802 | 26 | 358 | 0.0 | 8.0 | 0.00 | 0.00 | 0.00 | 48 | 1021.5 |
| 20260901125308 | 26 | 283 | 1.6 | 11.3 | 0.00 | 0.00 | 0.00 | 48 | 1021.5 |
| 20260901124803 | 26 | 279 | 1.6 | 9.7 | 0.00 | 0.00 | 0.00 | 48 | 1021.5 |
| 20260901124302 | 25 | 280 | 1.6 | 8.0 | 0.00 | 0.00 | 0.00 | 51 | 1021.4 |
| 20260901123802 | 23 | 296 | 3.2 | 8.0 | 0.00 | 0.00 | 0.00 | 50 | 1021.4 |
| 20260901123303 | 24 | 22 | 1.6 | 11.3 | 0.00 | 0.00 | 0.00 | 49 | 1021.4 |
| 20260901122306 | 25 | 292 | 0.0 | 4.8 | 0.00 | 0.00 | 0.00 | 50 | 1021.7 |
| 20260901121802 | 25 | 31 | 0.0 | 4.8 | 0.00 | 0.00 | 0.00 | 50 | 1021.7 |
| 20260901121302 | 25 | 63 | 1.6 | 8.0 | 0.00 | 0.00 | 0.00 | 50 | 1021.7 |
| 20260901120803 | 26 | 291 | 1.6 | 11.3 | 0.00 | 0.00 | 0.00 | 48 | 1021.7 |
| 20260901120303 | 26 | 300 | 1.6 | 8.0 | 0.00 | 0.00 | 0.00 | 46 | 1021.7 |
| 20260901115803 | 26 | 340 | 1.6 | 8.0 | 0.00 | 0.00 | 0.00 | 48 | 1021.7 |
| 20260901115306 | 26 | 31 | 0.0 | 11.3 | 0.00 | 0.00 | 0.00 | 48 | 1021.7 |
| 20260901114802 | 26 | 355 | 0.0 | 9.7 | 0.00 | 0.00 | 0.00 | 48 | 1021.7 |
| 20260901114302 | 26 | 5 | 0.0 | 9.7 | 0.00 | 0.00 | 0.00 | 49 | 1021.3 |
| 20260901113803 | 26 | 4 | 0.0 | 1.6 | 0.00 | 0.00 | 0.00 | 51 | 1021.3 |
| 20260901113303 | 25 | 272 | 0.0 | 0.0 | 0.00 | 0.00 | 0.00 | 55 | 1022.2 |
| 20260901112306 | 25 | 272 | 0.0 | 0.0 | 0.00 | 0.00 | 0.00 | 55 | 1022.2 |
| 20260901111803 | 25 | 272 | 0.0 | 0.0 | 0.00 | 0.00 | 0.00 | 55 | 1022.2 |
| 20260901111303 | 25 | 272 | 0.0 | 0.0 | 0.00 | 0.00 | 0.00 | 55 | 1022.2 |
| 20260901110804 | 25 | 272 | 0.0 | 0.0 | 0.00 | 0.00 | 0.00 | 55 | 1022.2 |
| 20260901105803 | 25 | 272 | 0.0 | 0.0 | 0.00 | 0.00 | 0.00 | 55 | 1022.2 |
| 20260901105305 | 25 | 272 | 0.0 | 0.0 | 0.00 | 0.00 | 0.00 | 55 | 1022.2 |
| 20260901104803 | 25 | 272 | 0.0 | 0.0 | 0.00 | 0.00 | 0.00 | 55 | 1022.2 |
| 20260901104303 | 25 | 272 | 0.0 | 0.0 | 0.00 | 0.00 | 0.00 | 55 | 1022.2 |
| 20260901103803 | 25 | 272 | 0.0 | 3.2 | 0.00 | 0.00 | 0.00 | 55 | 1022.2 |
| 20260901103303 | 25 | 310 | 0.0 | 1.6 | 0.00 | 0.00 | 0.00 | 55 | 1022.2 |
| 20260901102306 | 23 | 301 | 1.6 | 4.8 | 0.00 | 0.00 | 0.00 | 57 | 1022.2 |
| 20260901101803 | 23 | 252 | 1.6 | 4.8 | 0.00 | 0.00 | 0.00 | 58 | 1021.8 |
| 20260901100303 | 25 | 318 | 1.6 | 8.0 | 0.00 | 0.00 | 0.00 | 54 | 1021.9 |
| 20260901095803 | 24 | 274 | 0.0 | 3.2 | 0.00 | 0.00 | 0.00 | 58 | 1021.8 |
| 20260901095306 | 22 | 315 | 0.0 | 0.0 | 0.00 | 0.00 | 0.00 | 60 | 1021.9 |
| 20260901094804 | 22 | 328 | 1.6 | 8.0 | 0.00 | 0.00 | 0.00 | 61 | 1022.3 |
| 20260901093804 | 22 | 345 | 0.0 | 3.2 | 0.00 | 0.00 | 0.00 | 61 | 1022.4 |
| 20260901093304 | 22 | 268 | 0.0 | 4.8 | 0.00 | 0.00 | 0.00 | 61 | 1022.4 |
| 20260901092804 | 23 | 301 | 1.6 | 8.0 | 0.00 | 0.00 | 0.00 | 60 | 1022.4 |
| 20260901092305 | 23 | 266 | 1.6 | 8.0 | 0.00 | 0.00 | 0.00 | 61 | 1022.4 |
| 20260901091304 | 22 | 271 | 0.0 | 4.8 | 0.00 | 0.00 | 0.00 | 64 | 1022.5 |
| 20260901090803 | 21 | 284 | 1.6 | 8.0 | 0.00 | 0.00 | 0.00 | 69 | 1022.5 |
| 20260901090304 | 21 | 246 | 0.0 | 0.0 | 0.00 | 0.00 | 0.00 | 67 | 1022.4 |
| 20260901085306 | 21 | 273 | 0.0 | 0.0 | 0.00 | 0.00 | 0.00 | 69 | 1022.4 |
| 20260901084804 | 21 | 46 | 0.0 | 4.8 | 0.00 | 0.00 | 0.00 | 70 | 1022.4 |
| 20260901084303 | 21 | 309 | 1.6 | 3.2 | 0.00 | 0.00 | 0.00 | 70 | 1022.4 |
| 20260901083803 | 21 | 309 | 0.0 | 0.0 | 0.00 | 0.00 | 0.00 | 72 | 1022.4 |
| 20260901083304 | 20 | 53 | 0.0 | 0.0 | 0.00 | 0.00 | 0.00 | 74 | 1022.4 |
| 20260901082804 | 20 | 53 | 0.0 | 0.0 | 0.00 | 0.00 | 0.00 | 76 | 1022.4 |
| 20260901082306 | 20 | 53 | 0.0 | 3.2 | 0.00 | 0.00 | 0.00 | 75 | 1022.4 |